Powrót do katalogu

DELTA 1 DEB

AktywnyLEO
NORAD 7195·DEBRIS·🇺🇸 United States

Wystrzelony Nov 6, 1973 z Vandenberg Space Force Base

Loading…

Następne Przeloty (najbliższe 24 godziny)

TLE

ŚwieżeSource: Space-Track

Epoka: Sep 14, 2026, 05:59 UTC

1 07195U 73086FD  26257.24965359  .00000859  00000-0  10250-2 0  9993
2 07195 103.1778 252.0129 0298380 158.1324 203.2847 13.54373626566627

Śledź DELTA 1 DEB w czasie rzeczywistym z AllMySat

Download on the App Store